Vorticity
8 7 6 6 5 5 5 5 4 4 4 5 5 5 5 5 5 5 5 5 4 4 4 4 4 4 4 4 4 4 4 4 4 4 4 4 4 4 4 5 5 6 6 7 7 7 7 7 7 7 7 6 5 5 5 4 4 3 3 2 2 2 2 2 2 3 3 4 5
6 5 5 4 4 4 4 4 4 4 5 5 5 5 5 5 5 4 4 4 4 4 4 4 4 4 4 4 4 4 4 4 4 4 5 5 5 5 5 6 6 7 7 7 8 8 8 8 7 7 6 6 5 4 4 3 2 2 2 2 2 2 2 2 3 4 4 5 6
4 4 4 4 4 4 4 4 5 5 5 5 5 5 4 4 4 4 4 4 4 4 4 4 5 5 5 5 5 5 5 5 5 5 5 6 6 6 7 7 7 8 8 8 8 8 8 7 7 6 5 5 4 4 4 4 2 1 2 3 3 2 2 3 4 4 5 6 7
3 3 3 4 4 4 4 4 4 4 4 4 4 4 4 4 4 4 4 4 5 5 5 5 5 5 5 5 6 6 6 6 6 6 6 7 7 8 8 8 8 9 9 9 8 8 8 7 6 5 5 4 4 3 3 4 2 1 1 2 2 2 3 4 5 6 6 8 9
3 3 3 4 4 4 4 4 4 4 4 4 4 4 4 4 4 5 5 5 6 6 6 6 6 6 6 6 6 7 7 7 7 7 8 8 8 9 9 9 9 9 9 8 8 7 7 6 5 4 4 3 3 3 3 3 2 2 2 2 2 3 4 5 6 7 8 10 11
3 3 3 4 4 4 4 4 4 4 4 4 4 4 5 5 5 6 6 6 6 6 6 7 7 7 7 7 7 7 8 8 8 8 9 9 9 9 9 9 9 8 8 7 7 6 6 5 4 4 3 3 2 2 2 1 1 2 3 3 4 4 5 7 8 9 10 12 13
3 3 3 4 4 4 4 4 4 4 4 5 5 5 5 5 6 6 6 6 6 7 7 7 7 7 7 8 8 8 8 8 9 9 9 9 9 9 9 8 8 7 7 6 6 5 5 4 4 4 3 2 2 2 2 1 1 2 3 5 6 6 7 9 10 11 13 14 15
3 3 4 4 4 4 4 4 5 5 5 6 6 6 6 6 6 6 6 7 7 7 7 7 7 7 7 8 8 8 8 9 9 9 9 9 8 8 8 7 7 6 6 5 5 4 4 3 2 3 3 2 2 2 2 2 3 4 5 6 8 9 10 11 12 14 15 15 16
4 4 4 4 4 4 4 5 5 5 5 6 6 6 6 6 6 6 7 7 7 7 7 7 7 8 8 8 8 8 8 8 8 8 8 8 7 7 7 6 6 5 5 4 4 3 3 3 2 2 2 2 2 3 4 4 5 7 8 9 10 12 14 15 16 17 18 18 18
4 4 4 4 4 4 4 5 5 5 5 5 5 6 6 6 6 7 7 7 6 7 8 8 8 8 8 8 8 8 8 8 7 7 7 7 6 6 6 5 5 5 5 4 3 3 2 2 2 3 3 3 4 5 7 8 9 11 13 14 14 15 17 18 19 19 20 21 21
4 4 4 4 4 4 4 4 5 5 5 5 5 6 6 7 7 7 7 7 7 8 8 8 7 7 7 7 7 7 7 7 6 6 6 6 6 5 5 5 5 4 4 4 3 3 3 3 3 4 5 6 7 9 11 12 14 15 16 18 18 19 19 20 21 22 22 23 23
4 4 4 4 4 4 4 4 4 5 5 6 6 6 7 7 7 7 7 7 8 8 7 7 7 7 7 7 7 7 6 6 6 6 6 6 6 6 5 5 5 4 4 4 4 4 4 5 6 7 9 10 12 13 15 17 18 19 20 20 21 22 22 22 23 24 24 23 24
3 3 3 4 4 4 4 4 5 5 6 6 6 7 7 7 7 7 7 7 7 7 7 7 6 6 6 6 6 6 6 6 6 6 6 6 6 6 5 5 5 5 5 5 6 6 8 9 11 12 13 15 17 18 19 20 21 22 22 22 23 24 24 23 24 24 24 25 26
3 3 3 4 4 5 5 5 5 6 6 7 7 7 7 7 7 6 6 6 6 6 6 6 6 6 6 6 6 6 6 6 6 6 6 6 6 6 5 6 6 6 7 8 9 11 12 14 16 17 18 19 20 21 22 22 23 23 24 24 24 25 25 24 24 24 25 26 26
3 4 4 4 5 5 5 6 6 6 7 7 6 6 6 6 6 5 5 5 6 6 6 6 7 6 6 6 6 6 6 6 6 6 6 6 6 6 6 7 8 9 10 12 14 15 17 18 19 20 21 21 22 22 23 24 25 25 25 25 25 25 25 25 25 25 25 24 24
4 4 5 5 5 6 6 6 6 6 6 6 6 5 5 5 5 5 5 5 6 6 6 6 6 6 6 6 5 5 6 6 6 6 6 7 7 8 9 10 12 13 15 16 17 19 20 21 21 22 22 23 23 24 25 25 25 25 26 26 25 25 25 24 24 24 23 22 22
5 5 5 6 6 6 6 6 6 5 5 5 5 5 5 5 5 5 6 6 6 6 6 6 6 6 6 6 5 5 5 6 6 7 8 9 10 11 12 14 15 16 17 18 19 20 21 22 23 23 24 24 24 25 25 25 25 25 25 25 24 24 23 23 22 22 21 20 19
5 5 6 6 6 6 6 5 5 5 5 5 5 5 5 5 6 6 6 6 5 5 5 6 5 5 5 5 6 6 6 7 8 9 10 11 12 14 15 16 17 18 20 21 21 22 22 23 23 24 25 25 25 25 25 25 25 25 24 24 23 22 21 20 20 19 18 17 16
5 5 6 6 5 5 5 5 5 5 5 5 5 6 6 6 6 6 6 6 5 5 5 5 5 5 5 6 6 7 8 9 10 11 12 14 15 16 17 18 19 21 22 23 23 23 23 24 24 24 25 25 25 25 25 24 24 23 23 22 21 19 18 17 16 15 15 14 13
5 5 5 5 5 5 5 5 5 5 5 6 6 6 6 6 5 5 5 5 5 4 4 5 5 6 7 7 8 9 10 11 12 13 14 16 17 18 20 20 21 22 24 24 24 24 24 25 25 25 24 24 24 24 23 23 22 21 20 19 18 17 16 15 14 13 13 12 11
5 5 5 5 5 5 5 5 6 6 6 6 6 6 5 5 5 5 5 5 5 5 5 6 6 7 8 8 9 10 11 13 14 15 16 17 19 20 21 22 23 24 25 26 25 25 25 24 24 24 23 23 22 21 21 20 19 18 17 16 15 14 13 13 12 12 11 11 10
5 5 5 5 5 6 6 6 6 6 6 5 5 5 5 5 5 5 5 5 5 6 6 7 7 8 8 9 10 11 12 14 16 17 18 20 21 22 23 25 25 25 26 27 26 25 24 23 23 22 21 20 19 19 18 17 15 15 14 13 12 11 11 10 10 10 10 10 9
5 5 5 6 6 6 6 6 6 5 5 5 5 5 5 5 5 5 5 6 6 6 7 7 8 8 9 11 12 13 14 16 18 20 21 23 23 24 25 27 26 26 26 26 24 23 22 21 20 19 18 16 15 15 14 13 12 11 11 10 9 9 9 8 8 8 8 8 7
5 5 6 6 6 6 5 5 5 4 4 4 5 5 5 5 5 6 6 6 6 7 7 7 9 10 11 13 14 16 17 18 19 21 23 25 25 25 25 26 26 25 24 23 22 21 19 18 16 15 14 13 11 10 10 9 8 8 7 7 7 7 7 7 6 6 6 6 5
5 5 6 6 5 5 5 4 4 4 4 5 5 5 5 6 6 6 6 6 6 7 7 8 10 11 13 15 17 18 20 22 22 22 23 24 25 25 24 24 24 23 22 20 19 17 15 13 11 10 9 8 7 6 6 5 5 5 5 5 6 6 6 6 6 6 6 6 5
5 5 5 5 5 4 4 4 4 5 5 5 5 6 6 6 6 5 6 6 7 8 9 10 12 14 16 17 18 20 23 24 24 23 23 22 23 23 23 23 21 20 19 17 14 12 10 8 6 5 4 4 3 3 4 4 5 5 6 6 7 7 8 8 8 9 9 8 8
5 5 5 4 4 4 4 5 5 5 5 6 6 6 6 5 5 5 6 7 8 9 11 12 14 16 17 18 20 22 23 23 24 23 23 21 21 21 21 21 19 17 14 11 9 6 5 3 2 2 2 2 3 4 5 6 7 8 9 10 11 11 12 13 13 13 13 13 13
5 5 4 4 5 5 5 5 5 6 6 6 5 5 5 5 5 6 7 8 9 11 13 15 17 17 19 21 23 23 22 22 22 22 21 20 20 19 18 17 15 12 9 6 4 2 2 2 2 3 4 5 7 8 9 11 12 13 14 15 15 16 16 16 17 17 17 17 17
5 5 5 5 5 5 6 6 6 6 5 5 5 5 5 5 6 7 8 10 11 14 16 17 17 19 21 24 23 22 22 22 21 20 19 19 19 17 15 13 10 7 4 2 1 1 2 3 5 7 8 10 11 12 13 14 15 16 17 17 18 18 18 19 19 19 19 19 19
5 5 5 5 5 6 6 6 5 5 5 4 4 5 5 6 7 9 11 12 15 16 17 17 18 21 23 23 22 21 21 21 20 19 18 17 15 14 11 8 5 3 2 1 2 4 6 7 9 11 12 13 14 15 16 16 17 17 18 18 19 20 20 21 21 21 22 22 22
5 5 5 5 6 6 6 5 5 4 4 4 5 6 6 8 10 11 13 15 15 16 17 19 21 22 22 21 21 21 20 19 19 18 16 14 11 9 7 4 2 2 3 4 6 8 9 11 12 13 14 15 15 16 16 17 18 19 20 21 22 23 24 25 25 26 26 26 27
6 6 6 6 5 5 5 4 4 4 5 5 6 7 8 10 11 12 14 16 16 17 19 23 23 21 20 20 20 20 19 18 17 16 13 10 7 5 4 3 3 4 5 7 9 10 12 13 13 14 15 15 16 17 18 19 21 22 23 25 26 27 28 29 29 29 30 30 30
6 6 5 5 5 5 4 4 4 5 5 6 7 8 10 11 12 13 15 18 20 21 22 22 22 21 20 19 19 18 18 17 14 11 8 6 4 3 3 4 5 6 8 9 11 12 13 13 14 14 15 16 18 20 21 23 25 26 28 29 30 30 30 30 30 30 30 31 31
6 5 5 5 4 4 4 4 5 5 6 7 8 10 11 12 14 16 18 20 22 22 22 22 21 20 19 18 17 16 15 13 11 8 5 4 3 3 4 6 7 8 9 10 11 12 13 13 15 16 18 20 22 24 26 27 29 30 31 31 30 30 29 29 29 29 29 30 31
5 5 4 4 4 4 4 5 6 6 7 8 10 12 13 15 16 18 19 20 20 20 21 21 20 18 17 17 16 14 12 9 7 6 4 4 4 4 6 7 8 9 10 11 12 13 14 15 17 19 22 24 26 28 29 30 30 30 30 29 28 28 27 27 27 28 28 29 31
5 4 4 4 4 4 5 6 6 7 8 10 11 13 14 16 18 19 19 18 18 19 20 19 18 17 16 15 14 12 9 7 5 5 4 4 5 6 7 8 9 10 11 11 12 14 16 18 21 24 26 28 29 30 30 30 29 28 27 26 25 25 25 25 26 27 28 30 31
4 4 4 4 4 5 6 6 7 8 10 12 13 15 16 17 18 19 20 19 18 18 18 17 17 16 15 13 11 9 8 6 4 4 5 5 6 7 8 9 10 10 11 12 14 16 19 22 25 27 29 29 30 29 28 27 26 25 23 23 23 23 23 24 25 27 28 31 32
4 4 4 4 5 6 7 7 9 10 12 13 15 16 17 18 18 19 20 21 19 17 15 16 16 15 13 11 9 7 6 5 4 4 5 6 7 8 9 9 10 11 12 14 17 20 23 26 28 29 30 29 28 26 25 23 22 21 21 20 20 21 22 23 25 27 29 31 32
4 4 5 6 6 7 8 8 10 12 13 14 15 17 18 19 19 19 19 20 18 16 14 14 14 13 11 9 7 6 5 5 5 5 6 7 8 8 9 10 11 12 14 17 20 23 26 29 29 29 28 27 24 23 21 20 19 19 18 18 18 19 21 23 25 26 28 29 30
4 5 6 7 8 8 9 10 12 14 15 16 17 18 19 20 19 18 17 17 17 16 14 13 12 11 10 7 6 5 5 5 5 6 6 7 8 9 10 11 12 14 17 20 24 26 28 29 29 27 25 23 21 19 18 17 17 16 16 16 17 18 19 21 23 25 26 27 27
5 6 7 8 9 9 10 11 13 15 17 18 19 19 18 17 17 16 16 16 16 15 14 12 11 9 8 6 6 5 5 5 6 6 7 8 9 10 11 12 14 17 20 23 26 28 29 29 27 24 22 20 18 17 16 15 15 15 14 14 15 16 17 18 20 22 23 23 23
Height
5740 5738 5737 5735 5734 5732 5731 5729 5727 5726 5724 5722 5720 5719 5717 5715 5713 5711 5709 5708 5706 5704 5702 5700 5698 5696 5693 5691 5689 5687 5684 5682 5679 5677 5674 5672 5669 5667 5664 5661 5658 5656 5653 5651 5648 5645 5643 5640 5637 5635 5632 5629 5626 5623 5620 5617 5615 5612 5609 5606 5603 5600 5597 5594 5591 5588 5585 5582 5578
5737 5735 5733 5732 5730 5729 5727 5725 5724 5722 5720 5718 5717 5715 5713 5711 5709 5707 5705 5703 5701 5699 5697 5695 5693 5691 5688 5686 5684 5681 5679 5677 5674 5672 5669 5666 5663 5661 5658 5655 5652 5650 5647 5644 5642 5639 5636 5634 5631 5628 5625 5622 5620 5617 5614 5610 5607 5605 5602 5599 5596 5593 5590 5587 5583 5580 5577 5574 5570
5733 5732 5730 5729 5727 5725 5723 5722 5720 5718 5716 5714 5713 5711 5709 5707 5705 5703 5701 5699 5697 5695 5693 5691 5688 5686 5683 5681 5678 5676 5674 5671 5669 5666 5663 5661 5658 5655 5652 5649 5646 5643 5641 5638 5635 5632 5630 5627 5624 5622 5619 5616 5613 5610 5607 5604 5601 5598 5595 5592 5588 5585 5582 5579 5576 5572 5569 5566 5562
5730 5728 5727 5725 5724 5722 5720 5718 5717 5715 5713 5711 5709 5707 5705 5703 5701 5699 5697 5695 5692 5690 5688 5686 5683 5681 5679 5676 5673 5671 5668 5666 5663 5660 5657 5655 5652 5649 5646 5643 5640 5637 5635 5632 5629 5626 5623 5620 5617 5615 5612 5609 5606 5603 5600 5597 5594 5591 5587 5584 5581 5578 5574 5571 5567 5564 5561 5558 5554
5727 5725 5723 5722 5720 5718 5717 5715 5713 5711 5709 5707 5706 5703 5702 5700 5697 5695 5693 5691 5688 5686 5683 5681 5679 5676 5673 5671 5668 5666 5663 5660 5657 5655 5652 5649 5646 5643 5640 5637 5634 5631 5628 5625 5622 5619 5617 5614 5611 5608 5605 5602 5599 5596 5592 5589 5587 5583 5580 5577 5573 5570 5567 5563 5559 5556 5553 5550 5546
5724 5722 5720 5718 5717 5715 5713 5711 5709 5708 5706 5704 5702 5700 5698 5696 5694 5691 5689 5687 5684 5682 5679 5676 5674 5671 5668 5666 5663 5660 5657 5654 5652 5649 5646 5643 5640 5637 5634 5631 5628 5625 5622 5619 5616 5613 5610 5607 5605 5602 5598 5596 5593 5589 5586 5582 5579 5576 5573 5569 5566 5562 5558 5555 5551 5547 5544 5542 5538
5721 5719 5717 5715 5713 5712 5710 5708 5706 5704 5702 5701 5699 5697 5694 5692 5689 5687 5685 5682 5679 5677 5674 5672 5669 5666 5663 5661 5658 5655 5652 5649 5646 5643 5640 5637 5634 5631 5628 5625 5622 5619 5616 5613 5610 5607 5604 5601 5598 5595 5592 5589 5586 5583 5579 5575 5572 5568 5565 5562 5558 5554 5550 5547 5543 5539 5536 5533 5529
5717 5715 5714 5712 5710 5708 5707 5705 5703 5701 5699 5697 5695 5692 5690 5687 5685 5683 5680 5677 5675 5672 5669 5666 5663 5661 5658 5655 5652 5649 5647 5643 5640 5637 5634 5632 5628 5625 5622 5619 5617 5613 5610 5607 5604 5601 5597 5594 5591 5588 5585 5582 5579 5575 5572 5568 5565 5561 5557 5553 5550 5546 5542 5538 5534 5531 5527 5524 5521
5714 5712 5710 5708 5707 5705 5703 5701 5699 5697 5695 5693 5691 5688 5686 5683 5681 5678 5675 5672 5670 5667 5664 5661 5658 5655 5652 5649 5647 5644 5641 5638 5635 5632 5629 5626 5623 5620 5617 5613 5611 5607 5604 5601 5597 5594 5591 5587 5584 5581 5578 5574 5571 5568 5564 5560 5557 5553 5549 5545 5542 5538 5534 5530 5526 5523 5520 5516 5512
5711 5709 5707 5705 5703 5701 5699 5697 5695 5693 5691 5688 5686 5683 5681 5678 5676 5673 5670 5667 5665 5662 5659 5656 5653 5650 5647 5644 5641 5638 5636 5632 5629 5627 5623 5620 5617 5614 5611 5608 5604 5601 5598 5594 5591 5588 5584 5581 5577 5574 5571 5567 5563 5560 5556 5552 5548 5545 5542 5537 5533 5530 5526 5522 5518 5514 5512 5508 5505
5707 5706 5703 5702 5699 5697 5695 5693 5691 5689 5687 5684 5682 5679 5676 5673 5671 5668 5665 5662 5659 5656 5653 5651 5648 5645 5642 5639 5636 5633 5630 5627 5624 5621 5618 5615 5611 5608 5605 5602 5598 5595 5591 5587 5584 5581 5577 5574 5571 5567 5564 5560 5556 5552 5549 5545 5541 5537 5533 5529 5525 5522 5518 5515 5510 5507 5503 5501 5497
5704 5702 5700 5698 5696 5694 5692 5689 5687 5685 5682 5679 5677 5674 5671 5669 5666 5663 5660 5657 5654 5652 5648 5646 5643 5640 5637 5634 5631 5628 5625 5622 5618 5615 5612 5609 5606 5602 5599 5595 5592 5588 5585 5581 5577 5573 5570 5567 5563 5560 5557 5552 5548 5544 5541 5537 5533 5529 5525 5522 5517 5514 5510 5507 5503 5499 5496 5493 5490
5700 5698 5696 5694 5692 5690 5687 5685 5683 5680 5678 5675 5672 5669 5667 5664 5661 5658 5656 5652 5650 5647 5644 5641 5637 5635 5632 5629 5626 5622 5619 5616 5613 5609 5606 5602 5599 5596 5592 5589 5585 5582 5578 5574 5570 5566 5562 5559 5555 5552 5549 5545 5541 5537 5532 5529 5525 5521 5517 5513 5510 5506 5502 5499 5495 5492 5488 5485 5482
5696 5694 5692 5690 5688 5686 5683 5681 5678 5676 5673 5670 5667 5665 5662 5659 5656 5654 5651 5648 5645 5642 5639 5636 5632 5629 5626 5623 5620 5617 5613 5610 5607 5603 5600 5596 5593 5589 5586 5582 5578 5574 5571 5567 5562 5558 5555 5551 5547 5544 5540 5537 5533 5529 5525 5521 5517 5513 5509 5505 5502 5498 5494 5491 5487 5484 5481 5478 5476
5692 5690 5688 5686 5684 5682 5679 5676 5674 5671 5668 5666 5663 5660 5657 5655 5652 5649 5646 5643 5640 5637 5634 5631 5627 5624 5621 5617 5614 5611 5607 5604 5601 5597 5594 5590 5586 5583 5579 5576 5572 5567 5563 5559 5555 5551 5547 5543 5539 5536 5532 5528 5524 5521 5517 5512 5508 5505 5501 5497 5493 5490 5486 5483 5480 5477 5474 5472 5469
5688 5686 5684 5682 5679 5677 5674 5672 5669 5667 5664 5661 5658 5656 5653 5650 5647 5644 5642 5638 5635 5632 5629 5625 5622 5619 5615 5612 5608 5605 5602 5598 5594 5591 5587 5584 5580 5576 5572 5568 5564 5560 5556 5551 5547 5543 5538 5534 5531 5527 5523 5519 5516 5512 5508 5504 5500 5497 5493 5489 5486 5482 5479 5476 5473 5470 5467 5465 5463
5684 5682 5679 5677 5675 5672 5670 5667 5665 5662 5659 5657 5654 5651 5648 5645 5642 5639 5636 5633 5630 5627 5623 5620 5617 5613 5610 5606 5602 5599 5596 5592 5588 5584 5581 5577 5573 5569 5565 5561 5556 5552 5547 5543 5539 5534 5530 5526 5522 5518 5514 5511 5507 5503 5500 5496 5492 5489 5485 5482 5479 5475 5472 5469 5466 5464 5462 5459 5457
5680 5677 5675 5673 5670 5668 5665 5663 5660 5657 5655 5652 5649 5646 5643 5640 5637 5634 5631 5628 5625 5622 5618 5614 5611 5607 5604 5601 5597 5593 5589 5586 5582 5577 5573 5569 5565 5561 5557 5552 5548 5543 5539 5534 5530 5526 5522 5517 5514 5510 5506 5502 5498 5495 5492 5488 5485 5482 5479 5475 5472 5469 5466 5463 5461 5458 5456 5453 5451
5676 5673 5671 5668 5666 5663 5661 5658 5656 5653 5650 5647 5644 5641 5638 5635 5632 5629 5626 5622 5619 5616 5613 5609 5605 5602 5598 5594 5590 5586 5582 5578 5575 5570 5566 5561 5557 5553 5549 5544 5540 5535 5530 5526 5521 5517 5513 5509 5505 5502 5498 5495 5491 5488 5485 5482 5479 5476 5473 5470 5467 5464 5461 5458 5455 5453 5450 5448 5446
5672 5669 5667 5664 5662 5659 5657 5654 5651 5648 5645 5642 5639 5636 5633 5630 5627 5624 5621 5617 5613 5610 5607 5603 5600 5596 5592 5588 5584 5580 5575 5571 5567 5563 5558 5553 5549 5545 5541 5536 5532 5527 5522 5517 5512 5508 5504 5501 5497 5494 5491 5487 5484 5482 5478 5476 5473 5471 5467 5464 5462 5459 5456 5453 5450 5447 5445 5442 5440
5667 5665 5662 5660 5657 5655 5652 5649 5646 5643 5640 5637 5634 5631 5628 5625 5621 5618 5615 5612 5608 5604 5601 5597 5593 5589 5585 5581 5577 5573 5568 5563 5559 5555 5551 5546 5541 5536 5532 5527 5523 5518 5513 5508 5504 5501 5497 5493 5490 5487 5484 5482 5479 5476 5473 5470 5468 5465 5462 5460 5457 5454 5451 5448 5445 5442 5439 5437 5434
5663 5660 5658 5655 5653 5650 5647 5644 5641 5638 5635 5632 5629 5626 5623 5619 5616 5612 5609 5606 5602 5598 5594 5590 5586 5582 5578 5574 5570 5565 5561 5556 5552 5547 5542 5538 5533 5528 5523 5519 5515 5511 5506 5502 5497 5493 5490 5487 5484 5481 5478 5476 5473 5471 5468 5465 5462 5460 5457 5455 5452 5449 5446 5443 5440 5437 5434 5431 5428
5659 5656 5654 5651 5648 5646 5642 5639 5636 5633 5630 5627 5624 5621 5617 5614 5611 5607 5603 5599 5596 5592 5587 5583 5579 5575 5571 5566 5562 5557 5553 5549 5544 5540 5535 5530 5526 5521 5517 5512 5507 5503 5499 5495 5491 5487 5484 5481 5478 5475 5472 5470 5467 5465 5463 5460 5457 5454 5452 5449 5446 5443 5441 5437 5434 5431 5428 5425 5422
5654 5652 5649 5647 5644 5641 5638 5635 5632 5628 5625 5622 5619 5615 5612 5608 5605 5601 5597 5593 5589 5585 5581 5577 5572 5568 5563 5559 5554 5550 5546 5542 5537 5532 5528 5523 5518 5514 5510 5506 5502 5498 5493 5489 5485 5481 5478 5474 5472 5469 5466 5463 5461 5459 5457 5454 5452 5449 5446 5442 5440 5437 5434 5432 5428 5425 5422 5419 5416
5650 5648 5645 5642 5639 5636 5633 5630 5627 5623 5620 5617 5613 5610 5607 5603 5599 5595 5591 5587 5583 5578 5574 5570 5565 5561 5556 5552 5547 5542 5538 5533 5529 5525 5521 5517 5512 5508 5504 5500 5496 5492 5488 5485 5481 5477 5473 5469 5465 5462 5459 5457 5454 5452 5450 5447 5445 5442 5439 5436 5432 5430 5427 5424 5421 5418 5415 5412 5409
5646 5643 5640 5637 5634 5631 5628 5625 5622 5618 5615 5611 5608 5604 5601 5597 5593 5589 5585 5581 5577 5572 5567 5563 5559 5554 5549 5545 5540 5535 5531 5526 5522 5518 5514 5511 5507 5502 5498 5495 5491 5487 5483 5479 5476 5472 5468 5464 5460 5457 5453 5449 5447 5444 5442 5440 5437 5434 5431 5428 5425 5422 5418 5416 5412 5410 5407 5404 5401
5642 5639 5636 5632 5629 5626 5623 5619 5616 5613 5609 5606 5602 5598 5594 5590 5587 5582 5578 5574 5570 5566 5561 5557 5552 5547 5543 5538 5534 5529 5524 5520 5515 5512 5508 5504 5501 5497 5493 5490 5486 5482 5477 5474 5471 5467 5463 5459 5456 5451 5447 5443 5439 5437 5434 5432 5429 5426 5423 5420 5417 5413 5410 5407 5403 5401 5398 5395 5392
5637 5634 5631 5627 5624 5621 5617 5614 5611 5607 5603 5600 5596 5592 5588 5584 5580 5576 5572 5568 5563 5559 5555 5550 5545 5541 5536 5532 5527 5523 5518 5514 5510 5506 5502 5498 5495 5491 5488 5484 5481 5477 5472 5469 5465 5461 5457 5453 5450 5446 5441 5437 5432 5429 5426 5423 5421 5417 5414 5411 5408 5404 5401 5397 5394 5391 5388 5385 5382
5632 5629 5626 5622 5619 5615 5612 5609 5605 5602 5598 5594 5590 5586 5582 5578 5574 5570 5566 5562 5557 5552 5548 5543 5539 5534 5529 5525 5521 5517 5512 5508 5504 5500 5497 5493 5490 5486 5482 5479 5476 5472 5467 5463 5459 5456 5452 5448 5444 5440 5435 5430 5426 5422 5418 5415 5412 5409 5406 5402 5399 5395 5392 5388 5384 5381 5378 5375 5372
5627 5624 5621 5617 5614 5610 5607 5603 5600 5596 5592 5588 5584 5580 5576 5572 5568 5563 5559 5555 5550 5546 5541 5537 5532 5528 5523 5518 5514 5510 5506 5502 5498 5494 5491 5488 5485 5482 5478 5474 5470 5466 5462 5458 5454 5450 5446 5442 5437 5433 5428 5424 5419 5415 5411 5407 5404 5400 5397 5393 5390 5386 5382 5379 5375 5372 5368 5365 5362
5622 5619 5616 5612 5608 5605 5602 5598 5594 5590 5586 5582 5578 5574 5570 5566 5561 5557 5553 5548 5544 5539 5534 5530 5526 5522 5517 5513 5509 5505 5501 5497 5493 5489 5486 5483 5479 5476 5472 5469 5465 5461 5457 5452 5448 5444 5440 5435 5431 5426 5421 5417 5412 5407 5403 5399 5396 5392 5388 5385 5381 5377 5373 5369 5366 5362 5359 5355 5352
5617 5614 5610 5607 5603 5600 5596 5592 5588 5584 5580 5576 5572 5568 5564 5559 5555 5550 5546 5542 5537 5533 5528 5523 5519 5515 5511 5507 5503 5500 5496 5492 5488 5485 5481 5478 5475 5471 5467 5464 5460 5456 5451 5447 5442 5437 5433 5429 5424 5419 5414 5409 5404 5400 5396 5392 5387 5384 5380 5376 5372 5369 5365 5361 5357 5353 5350 5347 5343
5612 5608 5605 5602 5598 5594 5590 5587 5582 5578 5574 5570 5566 5562 5557 5553 5548 5544 5539 5535 5531 5527 5522 5518 5513 5509 5505 5501 5498 5494 5490 5486 5482 5479 5476 5473 5470 5466 5462 5458 5454 5450 5445 5440 5436 5431 5426 5422 5417 5412 5406 5402 5397 5392 5388 5384 5380 5376 5372 5368 5365 5361 5357 5353 5349 5345 5342 5338 5334
5607 5603 5600 5597 5593 5589 5585 5581 5577 5572 5568 5564 5560 5555 5551 5546 5542 5538 5533 5529 5524 5520 5516 5512 5507 5503 5499 5496 5492 5489 5486 5482 5478 5474 5471 5467 5464 5461 5457 5453 5449 5444 5439 5434 5429 5424 5419 5414 5409 5404 5399 5394 5389 5384 5380 5377 5372 5369 5365 5362 5358 5354 5350 5346 5342 5338 5335 5331 5327
5602 5598 5595 5591 5587 5583 5579 5575 5571 5567 5562 5558 5554 5549 5544 5540 5536 5532 5527 5523 5519 5514 5510 5506 5502 5498 5494 5490 5487 5484 5481 5477 5474 5470 5466 5462 5459 5456 5452 5447 5443 5438 5433 5428 5423 5417 5412 5407 5402 5396 5391 5386 5381 5377 5373 5369 5366 5362 5359 5355 5352 5348 5344 5340 5337 5332 5329 5325 5321
5596 5593 5589 5586 5582 5577 5574 5569 5565 5561 5556 5552 5547 5543 5539 5534 5529 5525 5521 5517 5513 5509 5505 5501 5497 5493 5490 5487 5483 5479 5476 5473 5469 5465 5461 5457 5453 5449 5446 5441 5437 5432 5427 5422 5417 5411 5406 5400 5395 5389 5384 5378 5374 5370 5367 5363 5360 5356 5353 5349 5346 5342 5339 5335 5331 5327 5323 5320 5316
5591 5587 5584 5580 5576 5572 5567 5563 5559 5555 5550 5546 5541 5537 5533 5528 5524 5519 5514 5511 5507 5504 5500 5496 5492 5489 5486 5483 5480 5476 5472 5468 5465 5461 5456 5451 5447 5442 5439 5435 5430 5426 5421 5416 5410 5404 5399 5394 5388 5382 5377 5372 5367 5364 5360 5357 5354 5351 5348 5345 5341 5338 5334 5330 5327 5323 5319 5315 5311
5585 5581 5578 5574 5570 5566 5561 5557 5553 5549 5544 5540 5535 5531 5527 5522 5518 5513 5509 5505 5501 5498 5494 5491 5487 5484 5481 5478 5475 5472 5468 5464 5460 5455 5451 5446 5441 5436 5432 5427 5423 5418 5414 5409 5403 5398 5392 5387 5382 5376 5371 5366 5362 5358 5355 5352 5349 5346 5343 5340 5337 5333 5330 5327 5322 5319 5315 5311 5307
5579 5575 5572 5568 5564 5560 5555 5551 5547 5543 5539 5534 5529 5525 5520 5516 5512 5507 5503 5499 5495 5492 5489 5486 5483 5479 5476 5473 5470 5467 5463 5459 5455 5450 5446 5440 5435 5430 5425 5421 5416 5412 5407 5402 5397 5392 5387 5382 5376 5371 5366 5361 5357 5354 5351 5348 5345 5342 5339 5336 5333 5329 5326 5323 5319 5315 5311 5308 5304
5573 5569 5565 5561 5557 5553 5549 5545 5541 5536 5532 5528 5523 5519 5514 5510 5506 5502 5498 5494 5490 5487 5484 5481 5478 5474 5471 5467 5465 5462 5458 5454 5450 5445 5440 5435 5430 5425 5420 5415 5410 5405 5401 5396 5391 5386 5381 5376 5371 5367 5362 5357 5353 5350 5347 5344 5341 5338 5335 5332 5329 5326 5322 5319 5316 5312 5309 5305 5301
5567 5563 5559 5555 5551 5547 5543 5539 5535 5530 5525 5521 5517 5512 5508 5504 5500 5496 5492 5489 5485 5482 5479 5476 5473 5470 5466 5462 5459 5456 5453 5449 5445 5440 5435 5430 5425 5420 5414 5409 5404 5399 5395 5390 5386 5381 5376 5371 5367 5362 5358 5354 5350 5347 5343 5341 5337 5334 5331 5328 5326 5322 5319 5316 5312 5310 5306 5302 5298